weather.gov     
National Weather Service

Terminal Aerodrome Forecast
NWS Homepage
This page is being discontinued on March 12, 2014.
The same data is available at this site. Please update your bookmarks.
Thank you, and we apologize for the inconvenience.
Please send an email to SR-SRH.Webmaster@noaa.gov with any concerns.


Current Version
Previous Version:    01  02  03  04  05  06  07  08  09  10  11  12  13  14  15  16  17  18  19  20  21  22  23  24  25  26  27  28  29  30  
   31  32  33  34  35  
[Printable]
086
FTUS43 KARX 240520
TAFRST
TAF
KRST 240520Z 2406/2506 VRB04KT P6SM SKC
     FM241400 18007KT P6SM SCT045
     FM250000 17007KT P6SM VCSH BKN100=




086
FTUS43 KARX 240520
TAFRST
TAF
KRST 240520Z 2406/2506 VRB04KT P6SM SKC
     FM241400 18007KT P6SM SCT045
     FM250000 17007KT P6SM VCSH BKN100=


U.S. Dept. of Commerce
NOAA National Weather Service
1325 East West Highway
Silver Spring, MD 20910
E-mail: w-nws.webmaster@noaa.gov
Page last modified: May 16, 2007
NATIONAL WEATHER SERVICE: for Safety, for Work, for Fun - FOR LIFE